Location: Buchberg
(46.9333°N, 15.8500°E)
Time: 09:09:38
(UTC+00:00)

ADEOS II - Pass Details

Date: 14 July 2020
Orbit: 799 x 801 km, 98.5° (Epoch: 07 August)

Event Time Altitude Azimuth Distance (km) Brightness Sun altitude
Rises 01:16:49 0° 15° (NNE) 3,321 6.8 -15.0°
Reaches altitude 10° 01:19:11 10° 18° (NNE) 2,386 5.8 -14.8°
Maximum altitude 01:24:27 74° 103° (ESE) 837 2.2 -14.3°
Enters shadow 01:28:37 17° 187° (S) 1,952 3.6 -13.9°
